CZ-4B DEB

Satellite information

Favourite Embed

Satellite Type and Status

DEBRISIN ORBIT

Key statistics

Satellite CZ-4B DEB at a glance.

Uptime

7171

Days in orbit

Revolutions

≈ 14.9

Per day

Orbit

SSO

Sun Synchronous Orbit

Inclination

97.9

Latest

Satellite identification and parameters

Extended collection of information and parameters for CZ-4B DEB.

Object identification

Identified? True

Debris? True

Object name: CZ-4B DEB

International designator: 2006-015C

Object number (NORAD): 29536

Object ID (CCSDS): 29536

Country: PEOPLES REPUBLIC OF CHINA (PRC)

Current information (Y/N): Y

RCS size: SMALL

Orbital parameters

Period: 96.76 minutes

Inclination: 97.853 deg

SMA: 6981.639 km

Apoapsis: 666.71 km

Periapsis: 540.298 km

RAAN: 301.4877 deg

Eccentricy: 0.00905318

Argument of periapsis: 219.3291 deg

Mean anomaly: 140.1328 deg

Mean motion: 14.8821843 rev/day

Mean motion (dot): 0.00017405 rev/day2

B* drag term: 0.0017508158 1/REarth

Two-line elements (TLE)

Creation date: Dec. 12, 2025, 10:14 a.m.

Reference frame: TEME

Reference center: EARTH

Epoch: Dec. 12, 2025, 3:24 a.m. UTC

TLE line 0: 0 CZ-4B DEB

TLE line 1: 1 29536U 06015C 25346.14227120 .00017405 00000-0 17508-2 0 9996

TLE line 2: 2 29536 97.8530 301.4877 0090532 219.3291 140.1328 14.88218430 36057

Live tracking on map

Real-time ground track for satellite CZ-4B DEB.

In-orbit conjunctions

A list of the most updated potential collisions computed for object CZ-4B DEB.

Target Orbit TCA Probability of collision Miss distance Type
CZ-6A DEB LEO 2025-06-24 09:59:32 0.0001398839 295.0 (m) DEBRIS
SL-14 R/B LEO 2024-08-10 06:04:31 0.0004188427 58.0 (m) ROCKET BODY

Associated space launch

The Yaogan 1 (Remote Sensing Satellite-1) government remote sensing satellite, likely also used as a military reconnaissance satellite, was launched by CZ-4C rocket from China's Taiyuan space center on 26 April 2006. It is China's first space-based synthetic aperture radar (SAR) system. The military designation of the satellite is Jian Bing-5 (JB-5). The whole development project was funded by the PLA.

CZ-4B DEB was lifted into orbit during the mission ‘Long March 4C | Yaogan Weixing 1’, on board a Long March 4C space rocket.

The launch took place on April 26, 2006, 10:48 p.m. from Launch Complex 7.

For more information about the launch, click the button.

Launch to space Long March 4C | Yaogan Weixing 1
Long March 4C | Yaogan Weixing 1

Agency: N/A

Status: Launch Successful

Launch date: April 26, 2006, 10:48 p.m. UTC

Rocket: Long March 4C

Launch pad: Launch Complex 7

Location: Taiyuan Satellite Launch Center, People's Republic of China

...

Latest news about this satellite

There are no fresh news available about this satellite. Check back as we update our databases every day.


Newsletter sign-up

Weekly statistics, charts and insights to help you stay on top of the space industry.